Weather History for KJOT - November, 2013

Change the Weather History Date:

Friday, November 1, 2013

  Actual Average (KLOT) Record (KLOT)
Temperature  
Mean Temperature 46 °F 47 °F  
Max Temperature 49 °F 56 °F 76 °F (2000)
Min Temperature 43 °F 39 °F 23 °F (1996)
Degree Days  
Heating Degree Days 19 18  
Month to date heating degree days 18  
Since 1 July heating degree days 505  
Cooling Degree Days 0 0  
Month to date cooling degree days 0  
Year to date cooling degree days 862  
Moisture  
Dew Point 41 °F    
Average Humidity 83    
Maximum Humidity 94    
Minimum Humidity 69    
Precipitation  
Precipitation 0.04 in 0.12 in 1.43 in (1992)
Month to date precipitation 0.12  
Year to date precipitation 34.48  
Snow  
Snow 0.00 in 0.00 in 0.00 in (2011)
Month to date snowfall 0.0  
Since 1 July snowfall 0.0  
Since 1 September snowfall 0.0  
Snow Depth -    
Sea Level Pressure  
Sea Level Pressure 29.62 in    
Wind  
Wind Speed 9 mph (West)    
Max Wind Speed 15 mph    
Max Gust Speed 31 mph    
Visibility 8 miles    
Events Rain    
T = Trace of Precipitation, MM = Missing Value Source: NWS Daily Summary

Daily Weather History Graph

Daily Weather History Graph

Search for Another Location

Airport or City:

Trip Planner

Search our weather history database for the weather conditions in past years. The results will help you decide how hot, cold, wet, or windy it might be!

Date:

Astronomy

Nov. 01, 2013 Rise Set
Actual Time 7:24 AM CDT 5:47 PM CDT
Civil Twilight 6:55 AM CDT 6:16 PM CDT
Nautical Twilight 6:23 AM CDT 6:48 PM CDT
Astronomical Twilight 5:50 AM CDT 7:20 PM CDT
Moon 5:15 AM CDT (11/1) 4:41 PM CDT (11/1)
Length of Visible Light 11h 20m
Length of Day
10h 22m
Waning Crescent, 4% of the Moon is Illuminated
Nov 1
Waning Crescent
Nov 3
New
Nov 9
First Quarter
Nov 17
Full
Nov 25
Last Quarter

Hourly Weather History & Observations

Time (CDT) Temp. Windchill Dew Point Humidity Pressure Visibility Wind Dir Wind Speed Gust Speed Precip Events Conditions
12:15 AM 45.7 °F 39.8 °F 41.4 °F 85% 29.44 in 10.0 mi West 12.7 mph 20.7 mph N/A   Overcast
12:35 AM 45.7 °F 39.1 °F 41.5 °F 85% 29.46 in 10.0 mi WSW 15.0 mph 21.9 mph N/A   Overcast
12:55 AM 45.1 °F 39.1 °F 39.2 °F 80% 29.46 in 10.0 mi West 12.7 mph 31.1 mph N/A   Overcast
1:15 AM 44.8 °F 39.4 °F 40.5 °F 85% 29.47 in 10.0 mi West 10.4 mph 19.6 mph N/A   Mostly Cloudy
1:35 AM 44.2 °F 38.4 °F 39.7 °F 84% 29.48 in 10.0 mi WSW 11.5 mph 23.0 mph N/A   Mostly Cloudy
1:55 AM 44.1 °F 38.6 °F 39.6 °F 84% 29.48 in 10.0 mi West 10.4 mph 19.6 mph N/A   Overcast
2:15 AM 43.5 °F 37.5 °F 39.2 °F 85% 29.48 in 10.0 mi West 11.5 mph 17.3 mph N/A   Mostly Cloudy
2:35 AM 43.9 °F 38.8 °F 39.6 °F 85% 29.49 in 10.0 mi West 9.2 mph 16.1 mph N/A   Overcast
2:55 AM 44.2 °F 38.8 °F 40.1 °F 85% 29.49 in 7.0 mi West 10.4 mph 20.7 mph N/A   Overcast
3:15 AM 44.6 °F 39.2 °F 40.5 °F 85% 29.49 in 7.0 mi West 10.4 mph 16.1 mph N/A   Overcast
3:35 AM 44.6 °F 39.7 °F 40.6 °F 86% 29.48 in 7.0 mi West 9.2 mph - N/A   Overcast
3:55 AM 44.8 °F 41.0 °F 41.2 °F 87% 29.50 in 7.0 mi West 6.9 mph - N/A   Overcast
4:15 AM 44.8 °F 41.0 °F 41.9 °F 90% 29.51 in 5.0 mi WSW 6.9 mph - N/A   Overcast
4:35 AM 45.7 °F 41.0 °F 42.4 °F 88% 29.51 in 7.0 mi WSW 9.2 mph - N/A   Overcast
4:55 AM 45.9 °F 40.8 °F 42.3 °F 87% 29.51 in 7.0 mi WSW 10.4 mph 16.1 mph N/A   Overcast
5:15 AM 45.9 °F 42.3 °F 42.3 °F 87% 29.51 in 7.0 mi WSW 6.9 mph - N/A   Overcast
5:35 AM 46.0 °F 41.4 °F 42.3 °F 87% 29.52 in 10.0 mi WSW 9.2 mph - N/A   Overcast
5:55 AM 46.4 °F 41.9 °F 41.9 °F 84% 29.53 in 10.0 mi WSW 9.2 mph - N/A   Overcast
6:15 AM 46.4 °F 41.9 °F 41.9 °F 84% 29.55 in 10.0 mi WSW 9.2 mph - N/A   Overcast
6:35 AM 46.0 °F 40.6 °F 41.5 °F 84% 29.56 in 10.0 mi WSW 11.5 mph 17.3 mph N/A   Overcast
6:55 AM 45.9 °F 40.8 °F 41.0 °F 83% 29.56 in 10.0 mi WSW 10.4 mph 16.1 mph N/A   Overcast
7:15 AM 45.9 °F 40.4 °F 40.5 °F 81% 29.56 in 10.0 mi WSW 11.5 mph 17.3 mph N/A   Overcast
7:35 AM 45.7 °F 41.5 °F 40.1 °F 81% 29.57 in 10.0 mi WSW 8.1 mph - N/A   Overcast
7:55 AM 45.7 °F 43.4 °F 39.7 °F 80% 29.58 in 10.0 mi West 4.6 mph - N/A   Overcast
8:15 AM 45.7 °F 42.0 °F 39.4 °F 79% 29.59 in 10.0 mi West 6.9 mph - N/A   Overcast
8:35 AM 45.5 °F 41.8 °F 40.1 °F 81% 29.59 in 10.0 mi West 6.9 mph - N/A   Overcast
8:55 AM 45.7 °F 42.7 °F 40.1 °F 81% 29.59 in 10.0 mi WSW 5.8 mph - N/A   Overcast
9:15 AM 46.4 °F 42.9 °F 40.1 °F 79% 29.59 in 10.0 mi WSW 6.9 mph - N/A   Overcast
9:35 AM 46.8 °F - 39.9 °F 77% 29.59 in 10.0 mi West 6.9 mph - N/A   Overcast
9:55 AM 47.3 °F - 38.8 °F 72% 29.60 in 10.0 mi West 9.2 mph - N/A   Overcast
10:15 AM 47.5 °F - 38.8 °F 72% 29.60 in 10.0 mi West 10.4 mph 16.1 mph N/A   Overcast
10:35 AM 47.7 °F - 38.8 °F 71% 29.61 in 10.0 mi West 11.5 mph 18.4 mph N/A   Overcast
10:55 AM 47.8 °F - 39.6 °F 73% 29.61 in 10.0 mi WSW 11.5 mph 17.3 mph N/A   Overcast
11:15 AM 47.8 °F - 39.6 °F 73% 29.61 in 10.0 mi West 9.2 mph 19.6 mph N/A   Overcast
11:35 AM 48.2 °F - 39.4 °F 72% 29.62 in 10.0 mi West 10.4 mph 16.1 mph N/A   Overcast
11:55 AM 48.6 °F - 39.4 °F 71% 29.63 in 10.0 mi WNW 8.1 mph - N/A   Overcast
12:15 PM 48.6 °F - 38.8 °F 69% 29.62 in 10.0 mi West 11.5 mph 19.6 mph N/A   Overcast
12:35 PM 49.1 °F - 39.4 °F 69% 29.62 in 10.0 mi West 12.7 mph 17.3 mph N/A   Overcast
12:55 PM 48.2 °F - 39.4 °F 72% 29.62 in 10.0 mi West 9.2 mph 16.1 mph N/A   Overcast
1:15 PM 48.6 °F - 39.6 °F 71% 29.62 in 10.0 mi West 11.5 mph - N/A   Overcast
1:35 PM 48.2 °F - 39.4 °F 72% 29.62 in 10.0 mi West 8.1 mph 16.1 mph N/A   Overcast
1:55 PM 48.2 °F - 40.1 °F 74% 29.63 in 10.0 mi West 9.2 mph 17.3 mph N/A   Overcast
2:15 PM 48.2 °F - 39.9 °F 73% 29.64 in 10.0 mi West 6.9 mph - N/A   Overcast
2:35 PM 48.2 °F - 40.1 °F 74% 29.64 in 10.0 mi West 10.4 mph - N/A   Overcast
2:55 PM 48.2 °F - 40.3 °F 74% 29.64 in 10.0 mi West 9.2 mph - N/A   Overcast
3:15 PM 47.8 °F - 40.5 °F 76% 29.65 in 10.0 mi West 6.9 mph - N/A   Overcast
4:55 PM 45.9 °F 41.7 °F 41.4 °F 84% 29.69 in 7.0 mi West 8.1 mph - N/A   Light Drizzle
5:15 PM 45.9 °F 42.9 °F 41.4 °F 84% 29.69 in 10.0 mi West 5.8 mph - N/A   Overcast
5:35 PM 46.0 °F 43.1 °F 41.4 °F 84% 29.69 in 10.0 mi West 5.8 mph - N/A Rain Rain
5:55 PM 45.9 °F 44.6 °F 41.9 °F 86% 29.70 in 10.0 mi West 3.5 mph - N/A   Drizzle
6:15 PM 45.7 °F 42.7 °F 42.3 °F 88% 29.71 in 7.0 mi West 5.8 mph - 0.01 in Rain Light Rain
6:35 PM 45.5 °F 42.5 °F 42.6 °F 90% 29.71 in 7.0 mi West 5.8 mph - 0.01 in   Drizzle
6:55 PM 45.1 °F 42.8 °F 42.8 °F 91% 29.72 in 7.0 mi West 4.6 mph - 0.01 in   Drizzle
7:15 PM 45.1 °F 42.0 °F 43.0 °F 92% 29.73 in 5.0 mi West 5.8 mph - N/A   Drizzle
7:35 PM 45.1 °F 40.8 °F 43.0 °F 92% 29.73 in 5.0 mi West 8.1 mph - 0.01 in   Drizzle
7:55 PM 45.5 °F 41.8 °F 43.2 °F 92% 29.74 in 5.0 mi West 6.9 mph - 0.01 in   Drizzle
8:15 PM 45.5 °F 43.2 °F 43.3 °F 92% 29.74 in 5.0 mi West 4.6 mph - 0.01 in   Drizzle
8:35 PM 45.5 °F 44.2 °F 43.7 °F 93% 29.74 in 4.0 mi WSW 3.5 mph - 0.02 in   Drizzle
8:55 PM 45.5 °F 43.2 °F 43.7 °F 93% 29.74 in 5.0 mi WSW 4.6 mph - 0.02 in   Drizzle
9:15 PM 45.5 °F 43.2 °F 43.7 °F 93% 29.74 in 5.0 mi WSW 4.6 mph - N/A   Drizzle
9:35 PM 45.5 °F 42.5 °F 43.7 °F 93% 29.75 in 5.0 mi WSW 5.8 mph - N/A   Overcast
9:55 PM 45.3 °F 43.0 °F 43.7 °F 94% 29.76 in 5.0 mi West 4.6 mph - N/A   Overcast
10:15 PM 45.5 °F 42.5 °F 43.7 °F 93% 29.76 in 5.0 mi West 5.8 mph - N/A   Overcast
10:35 PM 45.5 °F 43.2 °F 43.3 °F 92% 29.76 in 5.0 mi WSW 4.6 mph - N/A   Overcast
10:55 PM 45.1 °F 42.8 °F 43.0 °F 92% 29.76 in 5.0 mi West 4.6 mph - N/A   Overcast
11:15 PM 44.6 °F 41.4 °F 42.4 °F 92% 29.76 in 5.0 mi West 5.8 mph - N/A   Mostly Cloudy
11:35 PM 43.7 °F 41.1 °F 41.5 °F 92% 29.76 in 5.0 mi West 4.6 mph - N/A   Scattered Clouds
11:55 PM 43.0 °F 40.3 °F 41.2 °F 93% 29.76 in 5.0 mi West 4.6 mph - N/A   Clear